When you browse on this site, cookies collect data to enhance your experience and personalize the content and advertising you see.
Visit our Privacy Policy to learn more. By continuing to use the site, you agree to this use of cookies and data.

Meteo pe oră la Alhos Vedros

Astăzi, 12 August, Miercuri

Timp Temperatura Precipitaţii Vânt Presiune Umiditate
00:00 +19°C° 0 mm 4 m/s 758 mmHg 90%
01:00 +19°C° 0 mm 4 m/s 758 mmHg 90%
02:00 +20°C° 0 mm 3 m/s 758 mmHg 89%
03:00 +20°C° 0.1 mm 3 m/s 758 mmHg 89%
04:00 +20°C° 0.1 mm 3 m/s 758 mmHg 88%
05:00 +20°C° 0.1 mm 3 m/s 758 mmHg 88%
06:00 +21°C° 0.1 mm 3 m/s 758 mmHg 85%
07:00 +21°C° 0.1 mm 3 m/s 758 mmHg 82%
08:00 +22°C° 0.1 mm 4 m/s 758 mmHg 80%
09:00 +25°C° 0.1 mm 4 m/s 759 mmHg 72%
10:00 +26°C° 0.1 mm 4 m/s 759 mmHg 64%
11:00 +28°C° 0.1 mm 5 m/s 759 mmHg 57%
12:00 +28°C° 0 mm 5 m/s 759 mmHg 57%
13:00 +27°C° 0 mm 6 m/s 759 mmHg 57%
14:00 +27°C° 0 mm 6 m/s 758 mmHg 57%
15:00 +26°C° 0 mm 7 m/s 758 mmHg 59%
16:00 +26°C° 0 mm 7 m/s 759 mmHg 62%
17:00 +24°C° 0 mm 7 m/s 759 mmHg 65%
18:00 +22°C° 0 mm 6 m/s 759 mmHg 72%
19:00 +21°C° 0 mm 6 m/s 759 mmHg 79%
20:00 +19°C° 0 mm 5 m/s 760 mmHg 85%
21:00 +19°C° 0 mm 5 m/s 760 mmHg 87%
22:00 +17°C° 0 mm 5 m/s 760 mmHg 89%
23:00 +17°C° 0 mm 5 m/s 760 mmHg 90%

Mâine, 13 August, Joi

Timp Temperatura Precipitaţii Vânt Presiune Umiditate
00:00 +17°C° 0 mm 5 m/s 760 mmHg 91%
01:00 +18°C° 0 mm 4 m/s 760 mmHg 92%
02:00 +17°C° 0 mm 4 m/s 760 mmHg 92%
03:00 +17°C° 0 mm 4 m/s 760 mmHg 92%
04:00 +17°C° 0 mm 4 m/s 760 mmHg 92%
05:00 +16°C° 0 mm 5 m/s 760 mmHg 92%
06:00 +19°C° 0 mm 5 m/s 760 mmHg 80%
07:00 +21°C° 0 mm 5 m/s 760 mmHg 68%
08:00 +23°C° 0 mm 6 m/s 760 mmHg 56%
09:00 +26°C° 0 mm 6 m/s 760 mmHg 50%
10:00 +28°C° 0 mm 6 m/s 760 mmHg 44%
11:00 +29°C° 0 mm 7 m/s 760 mmHg 39%
12:00 +29°C° 0 mm 7 m/s 760 mmHg 38%
13:00 +29°C° 0 mm 7 m/s 760 mmHg 38%
14:00 +31°C° 0 mm 8 m/s 760 mmHg 37%
15:00 +28°C° 0 mm 7 m/s 759 mmHg 43%
16:00 +27°C° 0 mm 7 m/s 759 mmHg 48%
17:00 +24°C° 0 mm 7 m/s 759 mmHg 54%
18:00 +23°C° 0 mm 6 m/s 760 mmHg 63%
19:00 +21°C° 0 mm 6 m/s 760 mmHg 73%
20:00 +19°C° 0 mm 5 m/s 761 mmHg 83%
21:00 +19°C° 0 mm 5 m/s 761 mmHg 85%
22:00 +18°C° 0 mm 4 m/s 761 mmHg 88%
23:00 +18°C° 0 mm 4 m/s 761 mmHg 90%

Poimâine, 14 August, Vineri

Timp Temperatura Precipitaţii Vânt Presiune Umiditate
00:00 +18°C° 0 mm 4 m/s 760 mmHg 91%
01:00 +18°C° 0 mm 4 m/s 760 mmHg 92%
02:00 +17°C° 0 mm 4 m/s 760 mmHg 92%
03:00 +17°C° 0 mm 4 m/s 760 mmHg 93%
04:00 +17°C° 0 mm 4 m/s 760 mmHg 93%
05:00 +17°C° 0 mm 4 m/s 760 mmHg 94%
06:00 +19°C° 0 mm 4 m/s 760 mmHg 82%
07:00 +21°C° 0 mm 4 m/s 760 mmHg 70%
08:00 +23°C° 0 mm 5 m/s 760 mmHg 58%
09:00 +26°C° 0 mm 5 m/s 760 mmHg 53%
10:00 +27°C° 0 mm 5 m/s 760 mmHg 47%
11:00 +29°C° 0 mm 6 m/s 759 mmHg 41%
12:00 +29°C° 0 mm 6 m/s 759 mmHg 42%
13:00 +29°C° 0 mm 7 m/s 759 mmHg 42%
14:00 +29°C° 0 mm 7 m/s 759 mmHg 43%
15:00 +28°C° 0 mm 7 m/s 759 mmHg 46%
16:00 +26°C° 0 mm 7 m/s 759 mmHg 50%
17:00 +24°C° 0 mm 7 m/s 759 mmHg 53%
18:00 +22°C° 0 mm 6 m/s 759 mmHg 62%
19:00 +20°C° 0 mm 5 m/s 760 mmHg 72%
20:00 +19°C° 0 mm 4 m/s 760 mmHg 81%
21:00 +18°C° 0 mm 4 m/s 760 mmHg 84%
22:00 +18°C° 0 mm 3 m/s 760 mmHg 87%
23:00 +17°C° 0 mm 3 m/s 760 mmHg 89%

15 August, Sâmbătă

Timp Temperatura Precipitaţii Vânt Presiune Umiditate
00:00 +17°C° 0 mm 3 m/s 759 mmHg 89%
01:00 +17°C° 0 mm 3 m/s 759 mmHg 90%
02:00 +17°C° 0 mm 3 m/s 759 mmHg 90%
03:00 +17°C° 0 mm 3 m/s 759 mmHg 90%
04:00 +17°C° 0 mm 3 m/s 759 mmHg 90%
05:00 +17°C° 0 mm 3 m/s 759 mmHg 90%
06:00 +19°C° 0 mm 3 m/s 759 mmHg 80%
07:00 +21°C° 0 mm 3 m/s 759 mmHg 69%
08:00 +24°C° 0 mm 3 m/s 760 mmHg 58%
09:00 +25°C° 0 mm 4 m/s 760 mmHg 53%
10:00 +26°C° 0 mm 4 m/s 760 mmHg 47%
11:00 +28°C° 0 mm 5 m/s 759 mmHg 42%
12:00 +27°C° 0 mm 5 m/s 759 mmHg 43%
13:00 +27°C° 0 mm 6 m/s 759 mmHg 45%
14:00 +27°C° 0 mm 6 m/s 759 mmHg 46%
15:00 +26°C° 0 mm 6 m/s 759 mmHg 49%
16:00 +24°C° 0 mm 6 m/s 759 mmHg 52%
17:00 +24°C° 0 mm 6 m/s 759 mmHg 55%
18:00 +22°C° 0 mm 5 m/s 759 mmHg 64%
19:00 +20°C° 0 mm 5 m/s 760 mmHg 72%
20:00 +19°C° 0 mm 4 m/s 760 mmHg 80%
21:00 +18°C° 0 mm 4 m/s 760 mmHg 83%
22:00 +18°C° 0 mm 3 m/s 760 mmHg 86%
23:00 +17°C° 0 mm 3 m/s 760 mmHg 89%

16 August, Duminică

Timp Temperatura Precipitaţii Vânt Presiune Umiditate
00:00 +17°C° 0 mm 3 m/s 760 mmHg 89%
01:00 +17°C° 0 mm 3 m/s 760 mmHg 90%
02:00 +17°C° 0 mm 3 m/s 759 mmHg 90%
03:00 +17°C° 0 mm 3 m/s 759 mmHg 91%
04:00 +17°C° 0 mm 3 m/s 759 mmHg 91%
05:00 +17°C° 0 mm 3 m/s 759 mmHg 92%
06:00 +19°C° 0 mm 3 m/s 760 mmHg 80%
07:00 +21°C° 0 mm 3 m/s 760 mmHg 69%
08:00 +24°C° 0 mm 3 m/s 760 mmHg 58%
09:00 +25°C° 0 mm 4 m/s 760 mmHg 53%
10:00 +27°C° 0 mm 5 m/s 760 mmHg 47%
11:00 +28°C° 0 mm 5 m/s 760 mmHg 42%
12:00 +28°C° 0 mm 6 m/s 760 mmHg 43%
13:00 +28°C° 0 mm 6 m/s 759 mmHg 44%
14:00 +28°C° 0 mm 7 m/s 759 mmHg 45%
15:00 +27°C° 0 mm 7 m/s 759 mmHg 50%
16:00 +26°C° 0 mm 7 m/s 759 mmHg 55%
17:00 +24°C° 0 mm 7 m/s 759 mmHg 59%
18:00 +22°C° 0 mm 6 m/s 760 mmHg 67%
19:00 +21°C° 0 mm 6 m/s 760 mmHg 75%
20:00 +19°C° 0 mm 5 m/s 760 mmHg 83%
21:00 +19°C° 0 mm 5 m/s 760 mmHg 85%
22:00 +18°C° 0 mm 4 m/s 760 mmHg 87%
23:00 +18°C° 0 mm 4 m/s 761 mmHg 89%

17 August, Luni

Timp Temperatura Precipitaţii Vânt Presiune Umiditate
00:00 +18°C° 0 mm 4 m/s 760 mmHg 89%
01:00 +17°C° 0 mm 4 m/s 760 mmHg 90%
02:00 +17°C° 0 mm 3 m/s 760 mmHg 90%
03:00 +17°C° 0 mm 3 m/s 760 mmHg 91%
04:00 +17°C° 0 mm 3 m/s 760 mmHg 91%
05:00 +17°C° 0 mm 3 m/s 760 mmHg 91%
06:00 +19°C° 0 mm 3 m/s 760 mmHg 81%
07:00 +21°C° 0 mm 3 m/s 760 mmHg 71%
08:00 +24°C° 0 mm 3 m/s 760 mmHg 61%
09:00 +26°C° 0 mm 3 m/s 760 mmHg 57%
10:00 +28°C° 0 mm 4 m/s 760 mmHg 52%
11:00 +30°C° 0 mm 4 m/s 760 mmHg 48%
12:00 +30°C° 0 mm 5 m/s 760 mmHg 49%
13:00 +30°C° 0 mm 5 m/s 760 mmHg 51%
14:00 +30°C° 0 mm 6 m/s 759 mmHg 52%
15:00 +29°C° 0 mm 5 m/s 759 mmHg 57%
16:00 +28°C° 0 mm 5 m/s 759 mmHg 62%
17:00 +27°C° 0 mm 5 m/s 759 mmHg 67%
18:00 +25°C° 0 mm 5 m/s 760 mmHg 75%
19:00 +23°C° 0 mm 4 m/s 760 mmHg 84%
20:00 +21°C° 0 mm 3 m/s 760 mmHg 92%
21:00 +21°C° 0 mm 3 m/s 760 mmHg 93%
22:00 +21°C° 0 mm 3 m/s 760 mmHg 93%
23:00 +21°C° 0 mm 2 m/s 760 mmHg 94%
Arată mai mult